TimeCST,TemperatureF,Dew PointF,Humidity,Sea Level PressureIn,VisibilityMPH,Wind Direction,Wind SpeedMPH,Gust SpeedMPH,PrecipitationIn,Events,Conditions,WindDirDegrees,DateUTC
12:15 AM,30.6,24.8,79,29.97,10.0,NW,5.8,-,N/A,,Overcast,310,2013-02-15 06:15:00
12:35 AM,30.2,25.5,83,29.98,10.0,WNW,8.1,-,N/A,,Overcast,290,2013-02-15 06:35:00
12:55 AM,30.2,25.5,83,29.98,10.0,NW,8.1,-,N/A,,Overcast,310,2013-02-15 06:55:00
1:15 AM,30.2,25.3,82,29.99,10.0,WNW,6.9,-,N/A,,Overcast,300,2013-02-15 07:15:00
1:35 AM,30.2,25.5,83,29.99,10.0,NW,6.9,-,N/A,,Overcast,310,2013-02-15 07:35:00
1:55 AM,30.2,25.2,82,30.00,10.0,NNW,10.4,-,N/A,,Overcast,330,2013-02-15 07:55:00
2:15 AM,30.2,24.8,80,30.01,10.0,NNW,8.1,-,N/A,Snow,Light Snow,330,2013-02-15 08:15:00
2:35 AM,29.1,23.0,78,30.01,10.0,NNW,11.5,-,N/A,,Overcast,330,2013-02-15 08:35:00
2:55 AM,28.4,23.2,81,30.01,7.0,NNW,11.5,-,N/A,Snow,Light Snow,330,2013-02-15 08:55:00
3:15 AM,28.4,22.5,78,30.02,10.0,NNW,13.8,-,N/A,,Overcast,340,2013-02-15 09:15:00
3:35 AM,27.7,20.3,74,30.02,10.0,NNW,11.5,19.6,N/A,Snow,Light Snow,330,2013-02-15 09:35:00
3:55 AM,26.6,20.3,77,30.04,10.0,NNW,16.1,19.6,N/A,,Overcast,340,2013-02-15 09:55:00
4:15 AM,26.6,21.2,80,30.04,7.0,North,16.1,20.7,N/A,Snow,Light Snow,350,2013-02-15 10:15:00
4:35 AM,25.7,18.9,75,30.06,10.0,North,16.1,21.9,N/A,,Overcast,350,2013-02-15 10:35:00
4:55 AM,25.3,18.5,75,30.07,10.0,NNW,16.1,23.0,N/A,,Overcast,340,2013-02-15 10:55:00
5:15 AM,25.2,18.0,74,30.07,10.0,North,15.0,-,N/A,,Overcast,350,2013-02-15 11:15:00
5:35 AM,23.9,17.6,77,30.08,10.0,NNW,12.7,17.3,N/A,,Mostly Cloudy,330,2013-02-15 11:35:00
5:55 AM,22.1,16.3,79,30.09,10.0,NW,9.2,-,N/A,,Scattered Clouds,320,2013-02-15 11:55:00
6:15 AM,21.2,14.9,77,30.10,10.0,NW,13.8,19.6,N/A,,Scattered Clouds,320,2013-02-15 12:15:00
6:35 AM,20.3,14.2,77,30.11,10.0,NW,11.5,17.3,N/A,,Clear,320,2013-02-15 12:35:00
6:55 AM,19.6,11.1,70,30.12,10.0,NNW,15.0,19.6,N/A,,Clear,340,2013-02-15 12:55:00
7:15 AM,19.4,10.9,70,30.13,10.0,NNW,15.0,19.6,N/A,,Clear,330,2013-02-15 13:15:00
7:35 AM,19.4,10.4,68,30.14,10.0,NNW,16.1,20.7,N/A,,Clear,330,2013-02-15 13:35:00
7:55 AM,19.4,10.6,69,30.14,10.0,NW,12.7,18.4,N/A,,Clear,320,2013-02-15 13:55:00
8:15 AM,20.1,10.9,68,30.16,10.0,NW,12.7,18.4,N/A,,Clear,320,2013-02-15 14:15:00
8:35 AM,20.3,10.9,67,30.16,10.0,NW,11.5,16.1,N/A,,Clear,320,2013-02-15 14:35:00
8:55 AM,20.3,10.8,67,30.17,10.0,NNW,10.4,-,N/A,,Clear,330,2013-02-15 14:55:00
9:15 AM,20.7,10.6,65,30.16,10.0,NNW,11.5,-,N/A,,Clear,330,2013-02-15 15:15:00
9:35 AM,21.6,11.3,65,30.16,10.0,NW,9.2,-,N/A,,Clear,320,2013-02-15 15:35:00
9:55 AM,21.9,10.4,61,30.17,10.0,NNW,10.4,-,N/A,,Clear,330,2013-02-15 15:55:00
10:15 AM,22.8,11.3,61,30.17,10.0,NW,9.2,16.1,N/A,,Clear,320,2013-02-15 16:15:00
10:35 AM,23.9,12.0,61,30.17,10.0,NW,10.4,-,N/A,,Clear,320,2013-02-15 16:35:00
10:55 AM,24.6,11.8,58,30.17,10.0,NW,10.4,-,N/A,,Clear,310,2013-02-15 16:55:00
11:15 AM,25.7,12.7,58,30.17,10.0,NW,11.5,-,N/A,,Clear,310,2013-02-15 17:15:00
11:55 AM,26.6,13.1,57,30.17,10.0,WNW,12.7,16.1,N/A,,Clear,290,2013-02-15 17:55:00
12:15 PM,26.6,12.2,55,30.16,10.0,WNW,15.0,20.7,N/A,,Clear,300,2013-02-15 18:15:00
12:35 PM,27.3,13.1,55,30.16,10.0,WNW,13.8,18.4,N/A,,Clear,290,2013-02-15 18:35:00
12:55 PM,27.7,14.0,57,30.16,10.0,WNW,9.2,16.1,N/A,,Clear,300,2013-02-15 18:55:00
1:15 PM,27.7,13.3,55,30.16,10.0,WNW,12.7,17.3,N/A,,Scattered Clouds,290,2013-02-15 19:15:00
1:35 PM,27.3,11.7,52,30.15,10.0,NW,9.2,18.4,N/A,,Scattered Clouds,310,2013-02-15 19:35:00
1:55 PM,28.2,12.7,52,30.15,10.0,NW,11.5,-,N/A,,Scattered Clouds,310,2013-02-15 19:55:00
2:15 PM,28.0,12.7,53,30.14,10.0,WNW,11.5,16.1,N/A,,Scattered Clouds,290,2013-02-15 20:15:00
2:35 PM,28.0,10.6,48,30.14,10.0,NW,10.4,18.4,N/A,,Clear,310,2013-02-15 20:35:00
2:55 PM,28.4,12.2,51,30.14,10.0,NW,9.2,16.1,N/A,,Scattered Clouds,310,2013-02-15 20:55:00
3:15 PM,28.0,11.5,50,30.14,10.0,West,12.7,-,N/A,,Scattered Clouds,280,2013-02-15 21:15:00
3:35 PM,27.1,11.5,52,30.14,10.0,NW,10.4,-,N/A,,Clear,310,2013-02-15 21:35:00
3:55 PM,26.6,11.7,53,30.15,10.0,WNW,10.4,-,N/A,,Mostly Cloudy,290,2013-02-15 21:55:00
4:15 PM,26.6,12.4,55,30.15,10.0,WNW,9.2,-,N/A,,Overcast,290,2013-02-15 22:15:00
4:35 PM,26.6,11.8,54,30.15,10.0,WNW,9.2,-,N/A,,Overcast,300,2013-02-15 22:35:00
4:55 PM,26.2,11.5,54,30.15,10.0,WNW,8.1,-,N/A,,Overcast,300,2013-02-15 22:55:00
5:15 PM,26.2,11.5,54,30.15,10.0,WNW,10.4,-,N/A,,Overcast,290,2013-02-15 23:15:00
5:35 PM,25.7,11.1,54,30.15,10.0,NW,11.5,-,N/A,,Overcast,310,2013-02-15 23:35:00
5:55 PM,25.3,13.1,60,30.16,10.0,WNW,10.4,17.3,N/A,,Overcast,300,2013-02-15 23:55:00
6:15 PM,25.2,14.0,63,30.16,10.0,West,10.4,18.4,N/A,,Overcast,280,2013-02-16 00:15:00
6:35 PM,25.2,14.5,64,30.16,10.0,WNW,10.4,-,N/A,,Overcast,300,2013-02-16 00:35:00
6:55 PM,24.3,12.0,60,30.16,10.0,WNW,16.1,21.9,N/A,,Overcast,300,2013-02-16 00:55:00
7:15 PM,23.4,11.3,60,30.16,10.0,WNW,13.8,-,N/A,,Scattered Clouds,300,2013-02-16 01:15:00
7:35 PM,22.5,12.0,64,30.16,10.0,WNW,15.0,21.9,N/A,,Scattered Clouds,300,2013-02-16 01:35:00
7:55 PM,21.7,12.2,67,30.16,10.0,WNW,15.0,19.6,N/A,,Scattered Clouds,300,2013-02-16 01:55:00
8:15 PM,21.2,9.7,61,30.17,10.0,NW,16.1,23.0,N/A,,Clear,310,2013-02-16 02:15:00
8:35 PM,20.3,8.6,61,30.16,10.0,WNW,17.3,24.2,N/A,,Clear,300,2013-02-16 02:35:00
8:55 PM,20.1,9.3,63,30.17,10.0,NW,12.7,18.4,N/A,,Clear,310,2013-02-16 02:55:00
9:15 PM,19.9,8.6,61,30.17,10.0,NW,11.5,17.3,N/A,,Clear,310,2013-02-16 03:15:00
9:35 PM,19.4,8.6,63,30.17,10.0,NW,12.7,16.1,N/A,,Clear,310,2013-02-16 03:35:00
9:55 PM,19.0,8.8,64,30.17,10.0,NW,9.2,-,N/A,,Clear,310,2013-02-16 03:55:00
10:15 PM,19.0,7.9,62,30.16,10.0,NW,13.8,18.4,N/A,,Clear,310,2013-02-16 04:15:00
10:35 PM,18.1,8.6,66,30.17,10.0,NW,10.4,-,N/A,,Clear,310,2013-02-16 04:35:00
10:55 PM,17.6,8.4,67,30.17,10.0,NW,12.7,16.1,N/A,,Clear,310,2013-02-16 04:55:00
11:15 PM,17.6,7.5,65,30.16,10.0,NW,12.7,17.3,N/A,,Clear,310,2013-02-16 05:15:00
11:35 PM,17.2,7.2,65,30.16,10.0,NW,9.2,-,N/A,,Clear,310,2013-02-16 05:35:00
11:55 PM,16.7,7.2,66,30.16,10.0,NW,11.5,-,N/A,,Clear,310,2013-02-16 05:55:00